Tracking 17557 objects as of 8-February-2016
HD Live streaming from Space Station
objects crossing your sky now

SL-19 R/B

Track SL-19 R/B now!
10-day predictions


NORAD ID: 36589
Int'l Code: 2010-023B
Perigee: 881.7 km
Apogee: 1,215.9 km
Inclination: 100.6 °
Period: 106.0 minutes
Semi major axis: 7419 km
RCS: 6.505 m2 (large)
Launch date: June 2, 2010
Source: Commonwealth of Independent States (former USSR) (CIS)
Launch site: PLESETSK MISSILE AND SPACE COMPLEX (PKMTR)

Note: This is a ROCKET BODY
Your satellite tracking list
Your tracking list is empty





NASA's NSSDC Master Catalog

Two Line Element Set (TLE):
1 36589U 10023B   16038.14737493 -.00000027  00000-0  29038-4 0  9999
2 36589 100.5591  41.7314 0225177 215.4539 187.1309 13.5835424628232
Source of the keplerian elements: AFSPC

N2YO: 1043